Location: Berville
(49.1893°N, 2.0748°E)
Time: 18:05:15
(UTC+00:00)

Cosmos 2315 Rocket - Pass Details

Date: 08 February 2023
Orbit: 965 x 1002 km, 82.9° (Epoch: 29 March)

Event Time Altitude Azimuth Distance (km) Brightness Sun altitude
Rises 19:21:41 0° 192° (SSW) 3,699 7.1 -23.6°
Reaches altitude 10° 19:24:12 10° 194° (SSW) 2,758 6.5 -24.0°
Maximum altitude 19:30:32 76° 280° (W) 1,035 4.2 -25.0°
Drops below altitude 10° 19:36:58 10° 7° (N) 2,788 6.4 -26.0°
Sets 19:39:32 0° 9° (N) 3,742 7.1 -26.4°
